User: anonymous   Login
Location: Anna District 4 Election Precinct
(37.4833°N, 89.2195°W)
Time: 12:41:48
(UTC+00:00)
Language:

NOAA 12 - Orbit

View from above orbital plane
View from above orbital plane
View from above satellite
View from above satellite

Ground track
Ground track

The orbit data is extracted from the following two-line orbital elements,

1 21263U 91032A   21016.77197647 -.00000013  00000-0  12273-4 0  9991
2 21263  98.5049  26.4916 0014563  54.4083 305.8452 14.25930469543093
Epoch (UTC): 16 January 2021 18:31:38
Eccentricity: 0.0014563
inclination: 98.5049°
perigee height: 795 km
apogee height: 816 km
right ascension of ascending node: 26.4916°
argument of perigee: 54.4083°
revolutions per day: 14.25930469
mean anomaly at epoch: 305.8452°
orbit number at epoch: 54309

The dashed part of the orbit path shows where the satellite is in the earth's shadow,  

DLR